Location: Roanoke
(37.2710°N, 79.9420°W)
Time: 21:51:05
(UTC-05:00)

Transit 2A - Pass Details

Date: 25 November 2019
Orbit: 602 x 957 km, 66.7° (Epoch: 10 December)

Event Time Altitude Azimuth Distance (km) Brightness Sun altitude
Rises 10:08:08 0° 193° (SSW) 3,256 9.9 25.6°
Reaches altitude 10° 10:10:41 10° 189° (S) 2,273 9.4 25.8°
Maximum altitude 10:15:39 51° 114° (ESE) 884 7.4 26.3°
Drops below altitude 10° 10:20:12 10° 39° (NE) 2,081 8.1 26.8°
Sets 10:22:27 0° 34° (NE) 2,955 8.8 27.0°
